Location: Veytaux
(46.4185°N, 6.9320°E)
Time: 08:35:23
(UTC+00:00)

ATLAS CENTAUR R/B - Pass Details

Date: 27 May 2022
Orbit: 443 x 688 km, 64.6° (Epoch: 07 June)

Event Time Altitude Azimuth Distance (km) Brightness Sun altitude
Rises 00:08:40 0° 309° (NW) 3,044 5.5 -21.7°
Reaches altitude 10° 00:11:45 10° 290° (WNW) 2,099 4.4 -21.6°
Enters shadow 00:13:51 16° 265° (W) 1,704 3.6 -21.6°
